| time (UTC) | temp F | wind direction | speed MPH | gust MPH | rain 1hr in | rain 24hr in | rain mn in | humidity % | barometer mb |
| 20260901231549 | 62 | 289 | 1.0 | 5.0 | 0.00 | 0.00 | 0.00 | 86 | 1011.6 |
| 20260901230049 | 63 | 283 | 0.0 | 8.0 | 0.00 | 0.00 | 0.00 | 87 | 1011.5 |
| 20260901224547 | 62 | 288 | 1.0 | 4.0 | 0.00 | 0.00 | 0.00 | 89 | 1011.5 |
| 20260901223044 | 62 | 265 | 0.0 | 0.0 | 0.00 | 0.00 | 0.00 | 89 | 1011.5 |
| 20260901221606 | 61 | 285 | 0.0 | 0.0 | 0.00 | 0.00 | 0.00 | 89 | 1011.6 |
| 20260901220039 | 59 | 229 | 0.0 | 0.0 | 0.00 | 0.00 | 0.00 | 88 | 1011.5 |
| 20260901214538 | 58 | 206 | 0.0 | 0.0 | 0.00 | 0.00 | 0.00 | 89 | 1011.5 |
| 20260901213058 | 57 | 188 | 0.0 | 0.0 | 0.00 | 0.00 | 0.00 | 89 | 1011.4 |
| 20260901211542 | 57 | 188 | 0.0 | 0.0 | 0.00 | 0.00 | 0.00 | 90 | 1011.5 |
| 20260901210039 | 57 | 188 | 0.0 | 0.0 | 0.00 | 0.00 | 0.00 | 91 | 1011.4 |
| 20260901204535 | 56 | 188 | 0.0 | 0.0 | 0.00 | 0.00 | 0.00 | 92 | 1011.4 |
| 20260901203042 | 57 | 188 | 0.0 | 0.0 | 0.00 | 0.00 | 0.00 | 92 | 1011.4 |
| 20260901201533 | 57 | 188 | 0.0 | 1.0 | 0.00 | 0.00 | 0.00 | 92 | 1011.4 |
| 20260901200040 | 57 | 188 | 0.0 | 0.0 | 0.00 | 0.00 | 0.00 | 92 | 1011.4 |
| 20260901194529 | 58 | 188 | 0.0 | 2.0 | 0.00 | 0.00 | 0.00 | 92 | 1011.4 |
| 20260901193028 | 58 | 188 | 0.0 | 0.0 | 0.00 | 0.00 | 0.00 | 93 | 1011.4 |
| 20260901191527 | 59 | 188 | 0.0 | 0.0 | 0.00 | 0.00 | 0.00 | 93 | 1011.4 |
| 20260901190025 | 59 | 188 | 0.0 | 1.0 | 0.00 | 0.00 | 0.00 | 93 | 1011.4 |
| 20260901184532 | 60 | 189 | 0.0 | 0.0 | 0.00 | 0.00 | 0.00 | 92 | 1011.4 |
| 20260901183023 | 61 | 190 | 0.0 | 0.0 | 0.00 | 0.00 | 0.00 | 91 | 1011.2 |
| 20260901181523 | 61 | 190 | 0.0 | 0.0 | 0.00 | 0.00 | 0.00 | 92 | 1011.2 |
| 20260901180023 | 62 | 190 | 0.0 | 1.0 | 0.00 | 0.00 | 0.00 | 91 | 1011.1 |
| 20260901174522 | 62 | 190 | 0.0 | 0.0 | 0.00 | 0.00 | 0.00 | 90 | 1011.0 |
| 20260901173022 | 63 | 190 | 0.0 | 3.0 | 0.00 | 0.00 | 0.00 | 90 | 1011.0 |
| 20260901171524 | 63 | 192 | 1.0 | 5.0 | 0.00 | 0.00 | 0.00 | 90 | 1011.0 |
| 20260901170021 | 63 | 188 | 1.0 | 4.0 | 0.00 | 0.00 | 0.00 | 90 | 1011.0 |
| 20260901164521 | 63 | 194 | 2.0 | 6.0 | 0.00 | 0.00 | 0.00 | 90 | 1011.1 |
| 20260901163020 | 64 | 208 | 3.0 | 9.0 | 0.00 | 0.00 | 0.00 | 89 | 1011.1 |
| 20260901161542 | 64 | 184 | 1.0 | 7.0 | 0.00 | 0.00 | 0.00 | 89 | 1011.1 |
| 20260901160040 | 64 | 179 | 1.0 | 4.0 | 0.00 | 0.00 | 0.00 | 90 | 1011.0 |
| 20260901154540 | 63 | 217 | 1.0 | 5.0 | 0.00 | 0.00 | 0.00 | 90 | 1011.0 |
| 20260901153040 | 64 | 188 | 1.0 | 5.0 | 0.00 | 0.00 | 0.00 | 90 | 1011.0 |
| 20260901151539 | 64 | 205 | 1.0 | 3.0 | 0.00 | 0.00 | 0.00 | 89 | 1011.1 |
| 20260901150038 | 64 | 234 | 0.0 | 5.0 | 0.00 | 0.00 | 0.00 | 89 | 1011.0 |
| 20260901144538 | 64 | 195 | 1.0 | 3.0 | 0.00 | 0.00 | 0.00 | 88 | 1011.0 |
| 20260901143039 | 63 | 187 | 1.0 | 4.0 | 0.00 | 0.00 | 0.00 | 89 | 1011.0 |
| 20260901141547 | 63 | 174 | 2.0 | 4.0 | 0.00 | 0.00 | 0.00 | 88 | 1011.0 |
| 20260901140039 | 64 | 182 | 2.0 | 4.0 | 0.00 | 0.00 | 0.00 | 89 | 1011.1 |
| 20260901134535 | 63 | 174 | 1.0 | 6.0 | 0.00 | 0.00 | 0.00 | 90 | 1011.1 |
| 20260901133040 | 62 | 275 | 1.0 | 4.0 | 0.00 | 0.00 | 0.00 | 91 | 1011.2 |
| 20260901131534 | 62 | 275 | 2.0 | 6.0 | 0.00 | 0.00 | 0.00 | 91 | 1011.2 |
| 20260901130032 | 62 | 279 | 0.0 | 5.0 | 0.00 | 0.00 | 0.00 | 91 | 1011.1 |
| 20260901124534 | 62 | 263 | 2.0 | 8.0 | 0.00 | 0.00 | 0.00 | 90 | 1011.2 |
| 20260901123032 | 62 | 274 | 2.0 | 8.0 | 0.00 | 0.00 | 0.00 | 90 | 1011.1 |
| 20260901121536 | 63 | 294 | 1.0 | 8.0 | 0.00 | 0.00 | 0.00 | 90 | 1011.1 |
| 20260901120041 | 63 | 257 | 2.0 | 10.0 | 0.00 | 0.00 | 0.00 | 89 | 1011.1 |
| 20260901114531 | 64 | 263 | 3.0 | 10.0 | 0.00 | 0.00 | 0.00 | 88 | 1011.1 |
| 20260901113031 | 64 | 263 | 2.0 | 8.0 | 0.00 | 0.00 | 0.00 | 89 | 1011.2 |
| 20260901111529 | 65 | 254 | 3.0 | 8.0 | 0.00 | 0.00 | 0.00 | 88 | 1011.1 |
| 20260901110031 | 64 | 229 | 2.0 | 7.0 | 0.00 | 0.00 | 0.00 | 88 | 1010.9 |
| 20260901104530 | 64 | 265 | 2.0 | 8.0 | 0.00 | 0.00 | 0.00 | 88 | 1010.8 |
| 20260901103025 | 64 | 261 | 2.0 | 9.0 | 0.00 | 0.00 | 0.00 | 88 | 1010.5 |
| 20260901101522 | 64 | 227 | 1.0 | 4.0 | 0.00 | 0.00 | 0.00 | 87 | 1010.5 |
| 20260901100020 | 63 | 257 | 1.0 | 3.0 | 0.00 | 0.00 | 0.00 | 87 | 1010.5 |
| 20260901094520 | 63 | 159 | 0.0 | 3.0 | 0.00 | 0.00 | 0.00 | 86 | 1010.4 |
| 20260901093017 | 63 | 196 | 1.0 | 3.0 | 0.00 | 0.00 | 0.00 | 86 | 1010.4 |
| 20260901091516 | 63 | 205 | 1.0 | 6.0 | 0.00 | 0.00 | 0.00 | 86 | 1010.4 |
| 20260901090015 | 63 | 186 | 1.0 | 3.0 | 0.00 | 0.00 | 0.00 | 87 | 1010.3 |
| 20260901084515 | 63 | 184 | 1.0 | 3.0 | 0.00 | 0.00 | 0.00 | 88 | 1010.2 |
| 20260901083022 | 63 | 210 | 0.0 | 3.0 | 0.00 | 0.00 | 0.00 | 90 | 1010.2 |
| 20260901081517 | 63 | 239 | 1.0 | 4.0 | 0.00 | 0.00 | 0.00 | 91 | 1010.1 |
| 20260901080012 | 62 | 267 | 1.0 | 6.0 | 0.00 | 0.00 | 0.00 | 91 | 1009.9 |
| 20260901074511 | 62 | 215 | 0.0 | 3.0 | 0.00 | 0.00 | 0.00 | 92 | 1010.0 |
| 20260901073009 | 62 | 194 | 1.0 | 3.0 | 0.00 | 0.00 | 0.00 | 92 | 1009.9 |
| 20260901071508 | 61 | 194 | 0.0 | 4.0 | 0.00 | 0.00 | 0.00 | 92 | 1009.8 |
| 20260901070016 | 61 | 194 | 1.0 | 3.0 | 0.00 | 0.00 | 0.00 | 92 | 1009.7 |
| 20260901064507 | 61 | 269 | 1.0 | 4.0 | 0.00 | 0.00 | 0.00 | 92 | 1009.7 |
| 20260901063006 | 61 | 203 | 1.0 | 3.0 | 0.00 | 0.00 | 0.00 | 92 | 1009.5 |
| 20260901061508 | 62 | 236 | 1.0 | 3.0 | 0.00 | 0.00 | 0.00 | 92 | 1009.5 |
| 20260901060002 | 62 | 239 | 0.0 | 3.0 | 0.00 | 0.00 | 0.00 | 92 | 1009.3 |
| 20260901054501 | 62 | 296 | 0.0 | 4.0 | 0.00 | 0.00 | 0.00 | 92 | 1009.4 |
| 20260901053059 | 62 | 275 | 0.0 | 4.0 | 0.00 | 0.00 | 0.00 | 92 | 1009.4 |
| 20260901051603 | 62 | 267 | 0.0 | 2.0 | 0.00 | 0.00 | 0.00 | 92 | 1009.4 |
| 20260901050055 | 61 | 223 | 0.0 | 4.0 | 0.00 | 0.00 | 0.00 | 92 | 1009.4 |
| 20260901044555 | 61 | 124 | 0.0 | 0.0 | 0.00 | 0.00 | 0.00 | 92 | 1009.4 |
| 20260901043054 | 60 | 124 | 0.0 | 2.0 | 0.00 | 0.00 | 0.00 | 92 | 1009.4 |
| 20260901041614 | 60 | 183 | 0.0 | 1.0 | 0.00 | 0.00 | 0.00 | 92 | 1009.5 |
| 20260901040104 | 61 | 183 | 0.0 | 2.0 | 0.00 | 0.00 | 0.00 | 91 | 1009.4 |
| 20260901034551 | 61 | 183 | 0.0 | 3.0 | 0.00 | 0.00 | 0.00 | 91 | 1009.4 |
| 20260901033050 | 61 | 190 | 1.0 | 6.0 | 0.00 | 0.00 | 0.00 | 91 | 1009.6 |
| 20260901031552 | 60 | 169 | 2.0 | 5.0 | 0.00 | 0.00 | 0.00 | 91 | 1009.6 |
| 20260901030048 | 60 | 159 | 1.0 | 4.0 | 0.00 | 0.00 | 0.00 | 91 | 1009.5 |
| 20260901024551 | 60 | 186 | 0.0 | 3.0 | 0.00 | 0.00 | 0.00 | 91 | 1009.7 |
| 20260901023047 | 59 | 153 | 0.0 | 3.0 | 0.00 | 0.00 | 0.00 | 91 | 1009.6 |
| 20260901021552 | 59 | 150 | 0.0 | 2.0 | 0.00 | 0.00 | 0.00 | 90 | 1009.6 |
| 20260901020050 | 60 | 150 | 0.0 | 3.0 | 0.00 | 0.00 | 0.00 | 90 | 1009.6 |
| 20260901014544 | 60 | 140 | 0.0 | 3.0 | 0.00 | 0.00 | 0.00 | 90 | 1009.8 |
| 20260901013045 | 59 | 153 | 1.0 | 3.0 | 0.00 | 0.00 | 0.00 | 90 | 1009.7 |
| 20260901011544 | 59 | 158 | 0.0 | 3.0 | 0.00 | 0.00 | 0.00 | 90 | 1009.8 |
| 20260901003033 | 60 | 159 | 0.0 | 0.0 | 0.00 | 0.00 | 0.00 | 89 | 1009.9 |
| 20260831234530 | 61 | 160 | 0.0 | 2.0 | 0.00 | 0.00 | 0.00 | 89 | 1010.2 |
| 20260831233025 | 61 | 161 | 0.0 | 2.0 | 0.00 | 0.00 | 0.00 | 89 | 1010.3 |